Location: B�hl
(48.6968°N, 8.1352°E)
Time: 02:27:00
(UTC+00:00)

H-2A R/B - Pass Details

Date: 08 March 2021
Orbit: 577 x 654 km, 98.5° (Epoch: 16 April)

Event Time Altitude Azimuth Distance (km) Brightness Sun altitude
Rises 18:14:42 0° 4° (N) 2,807 5.4 -9.5°
Reaches altitude 10° 18:17:06 10° 352° (N) 1,904 4.7 -9.9°
Maximum altitude 18:20:30 26° 296° (WNW) 1,166 4.4 -10.4°
Drops below altitude 10° 18:23:56 10° 239° (WSW) 1,907 5.4 -11.0°
Sets 18:26:21 0° 227° (SW) 2,813 6.1 -11.4°
